When you browse on this site, cookies collect data to enhance your experience and personalize the content and advertising you see.
Visit our Privacy Policy to learn more. By continuing to use the site, you agree to this use of cookies and data.
  • In Hungary
  • List of Countries
  • For 7 days
  • Water Temperature
  • Satellite Maps
  • Weather Map
  • News
  • Weather Widgets
  • user-avatar
    Login

    Hourly Weather Cambre

    Today, 15 December, Saturday

    Time Temperature Precipitation Wind Pressure Humidity
    00:00 +13°C° 0.6 mm 6 mps 762 mmHg 95%
    01:00 +13°C° 0.6 mm 6 mps 762 mmHg 95%
    02:00 +13°C° 0.6 mm 6 mps 761 mmHg 95%
    03:00 +14°C° 0.6 mm 6 mps 761 mmHg 95%
    04:00 +14°C° 0.6 mm 6 mps 761 mmHg 95%
    05:00 +14°C° 0.6 mm 6 mps 760 mmHg 95%
    06:00 +15°C° 0.6 mm 7 mps 760 mmHg 95%
    07:00 +15°C° 0.6 mm 7 mps 760 mmHg 95%
    08:00 +15°C° 0.6 mm 7 mps 760 mmHg 95%
    09:00 +15°C° 0.3 mm 7 mps 760 mmHg 94%
    10:00 +15°C° 0.3 mm 8 mps 760 mmHg 93%
    11:00 +15°C° 0.3 mm 8 mps 760 mmHg 92%
    12:00 +15°C° 3.2 mm 8 mps 759 mmHg 93%
    13:00 +15°C° 3.2 mm 7 mps 759 mmHg 94%
    14:00 +15°C° 3.2 mm 7 mps 759 mmHg 95%
    15:00 +14°C° 3.6 mm 5 mps 759 mmHg 95%
    16:00 +14°C° 3.6 mm 4 mps 760 mmHg 96%
    17:00 +13°C° 3.6 mm 3 mps 760 mmHg 96%
    18:00 +12°C° 0.2 mm 3 mps 760 mmHg 96%
    19:00 +11°C° 0.2 mm 3 mps 761 mmHg 96%
    20:00 +11°C° 0.2 mm 3 mps 761 mmHg 96%
    21:00 +11°C° 0 mm 3 mps 761 mmHg 96%
    22:00 +10°C° 0 mm 3 mps 761 mmHg 96%
    23:00 +10°C° 0 mm 3 mps 761 mmHg 96%

    Tomorrow, 16 December, Sunday

    Time Temperature Precipitation Wind Pressure Humidity
    00:00 +10°C° 0 mm 3 mps 761 mmHg 96%
    01:00 +10°C° 0 mm 3 mps 760 mmHg 96%
    02:00 +10°C° 0 mm 3 mps 760 mmHg 96%
    03:00 +9°C° 0 mm 3 mps 760 mmHg 96%
    04:00 +8°C° 0 mm 4 mps 760 mmHg 96%
    05:00 +8°C° 0 mm 4 mps 759 mmHg 96%
    06:00 +8°C° 0.4 mm 5 mps 759 mmHg 95%
    07:00 +9°C° 0.4 mm 6 mps 759 mmHg 94%
    08:00 +9°C° 0.4 mm 7 mps 759 mmHg 93%
    09:00 +9°C° 2.3 mm 7 mps 759 mmHg 92%
    10:00 +9°C° 2.3 mm 7 mps 759 mmHg 91%
    11:00 +9°C° 2.3 mm 8 mps 760 mmHg 90%
    12:00 +9°C° 0.5 mm 7 mps 760 mmHg 89%
    13:00 +9°C° 0.5 mm 6 mps 761 mmHg 88%
    14:00 +9°C° 0.5 mm 6 mps 762 mmHg 87%
    15:00 +8°C° 0.1 mm 5 mps 762 mmHg 89%
    16:00 +8°C° 0.1 mm 4 mps 763 mmHg 91%
    17:00 +7°C° 0.1 mm 4 mps 764 mmHg 93%
    18:00 +7°C° 0 mm 4 mps 765 mmHg 93%
    19:00 +6°C° 0 mm 4 mps 765 mmHg 94%
    20:00 +6°C° 0 mm 4 mps 766 mmHg 94%
    21:00 +6°C° 0 mm 4 mps 766 mmHg 94%
    22:00 +6°C° 0 mm 4 mps 766 mmHg 95%
    23:00 +6°C° 0 mm 4 mps 766 mmHg 95%

    Day after tomorrow, 17 December, Monday

    Time Temperature Precipitation Wind Pressure Humidity
    00:00 +6°C° 0 mm 4 mps 766 mmHg 95%
    01:00 +6°C° 0 mm 4 mps 766 mmHg 95%
    02:00 +6°C° 0 mm 4 mps 766 mmHg 95%
    03:00 +6°C° 0 mm 4 mps 766 mmHg 95%
    04:00 +6°C° 0 mm 5 mps 766 mmHg 94%
    05:00 +6°C° 0 mm 5 mps 766 mmHg 94%
    06:00 +7°C° 0 mm 5 mps 766 mmHg 93%
    07:00 +7°C° 0 mm 5 mps 766 mmHg 93%
    08:00 +7°C° 0 mm 5 mps 767 mmHg 92%
    09:00 +8°C° 0 mm 6 mps 766 mmHg 89%
    10:00 +9°C° 0 mm 6 mps 766 mmHg 86%
    11:00 +10°C° 0 mm 6 mps 766 mmHg 82%
    12:00 +11°C° 0 mm 6 mps 765 mmHg 81%
    13:00 +11°C° 0 mm 6 mps 765 mmHg 79%
    14:00 +11°C° 0 mm 6 mps 764 mmHg 78%
    15:00 +10°C° 0 mm 6 mps 764 mmHg 79%
    16:00 +10°C° 0 mm 6 mps 764 mmHg 80%
    17:00 +10°C° 0 mm 6 mps 763 mmHg 81%
    18:00 +9°C° 0 mm 7 mps 763 mmHg 81%
    19:00 +9°C° 0 mm 7 mps 763 mmHg 80%
    20:00 +9°C° 0 mm 7 mps 763 mmHg 80%
    21:00 +9°C° 0 mm 8 mps 762 mmHg 78%
    22:00 +9°C° 0 mm 8 mps 761 mmHg 76%
    23:00 +9°C° 0 mm 8 mps 760 mmHg 74%

    18 December, Tuesday

    Time Temperature Precipitation Wind Pressure Humidity
    00:00 +10°C° 0.1 mm 9 mps 759 mmHg 74%
    01:00 +10°C° 0.1 mm 9 mps 758 mmHg 74%
    02:00 +9°C° 0.1 mm 10 mps 757 mmHg 75%
    03:00 +9°C° 0.7 mm 10 mps 756 mmHg 78%
    04:00 +9°C° 0.7 mm 10 mps 755 mmHg 81%
    05:00 +9°C° 0.7 mm 10 mps 754 mmHg 83%
    06:00 +11°C° 3.5 mm 9 mps 755 mmHg 87%
    07:00 +11°C° 3.5 mm 7 mps 755 mmHg 91%
    08:00 +11°C° 3.5 mm 6 mps 756 mmHg 95%
    09:00 +11°C° 2.9 mm 6 mps 757 mmHg 95%
    10:00 +10°C° 2.9 mm 5 mps 757 mmHg 95%
    11:00 +10°C° 2.9 mm 5 mps 758 mmHg 95%
    12:00 +10°C° 0.3 mm 5 mps 758 mmHg 94%
    13:00 +10°C° 0.3 mm 5 mps 758 mmHg 92%
    14:00 +10°C° 0.3 mm 5 mps 759 mmHg 90%
    15:00 +9°C° 0.1 mm 5 mps 759 mmHg 91%
    16:00 +9°C° 0.1 mm 5 mps 760 mmHg 93%
    17:00 +8°C° 0.1 mm 4 mps 761 mmHg 94%
    18:00 +8°C° 0.1 mm 5 mps 761 mmHg 94%
    19:00 +8°C° 0.1 mm 5 mps 762 mmHg 93%
    20:00 +7°C° 0.1 mm 5 mps 762 mmHg 93%
    21:00 +8°C° 0.2 mm 5 mps 762 mmHg 93%
    22:00 +8°C° 0.2 mm 5 mps 763 mmHg 94%
    23:00 +8°C° 0.2 mm 5 mps 763 mmHg 94%

    19 December, Wednesday

    Time Temperature Precipitation Wind Pressure Humidity
    00:00 +8°C° 0.2 mm 5 mps 763 mmHg 94%
    01:00 +8°C° 0.2 mm 5 mps 763 mmHg 95%
    02:00 +8°C° 0.2 mm 5 mps 763 mmHg 95%
    03:00 +8°C° 0.1 mm 5 mps 763 mmHg 95%
    04:00 +8°C° 0.1 mm 4 mps 763 mmHg 95%
    05:00 +8°C° 0.1 mm 4 mps 763 mmHg 95%
    06:00 +8°C° 0 mm 4 mps 764 mmHg 95%
    07:00 +8°C° 0 mm 5 mps 764 mmHg 95%
    08:00 +8°C° 0 mm 5 mps 764 mmHg 95%
    09:00 +9°C° 0.1 mm 5 mps 764 mmHg 90%
    10:00 +10°C° 0.1 mm 5 mps 764 mmHg 86%
    11:00 +11°C° 0.1 mm 6 mps 764 mmHg 82%
    12:00 +11°C° 0.2 mm 6 mps 764 mmHg 82%
    13:00 +10°C° 0.2 mm 6 mps 763 mmHg 82%
    14:00 +10°C° 0.2 mm 6 mps 763 mmHg 83%
    15:00 +10°C° 0.1 mm 6 mps 763 mmHg 86%
    16:00 +9°C° 0.1 mm 5 mps 763 mmHg 89%
    17:00 +9°C° 0.1 mm 5 mps 763 mmHg 93%
    18:00 +9°C° 0.1 mm 5 mps 763 mmHg 93%
    19:00 +9°C° 0.1 mm 5 mps 764 mmHg 93%
    20:00 +9°C° 0.1 mm 5 mps 764 mmHg 94%
    21:00 +9°C° 0.1 mm 5 mps 764 mmHg 94%
    22:00 +9°C° 0.1 mm 5 mps 764 mmHg 94%
    23:00 +9°C° 0.1 mm 5 mps 763 mmHg 94%

    20 December, Thursday

    Time Temperature Precipitation Wind Pressure Humidity
    00:00 +9°C° 0.2 mm 5 mps 763 mmHg 94%
    01:00 +9°C° 0.2 mm 5 mps 763 mmHg 94%
    02:00 +9°C° 0.2 mm 5 mps 763 mmHg 94%
    03:00 +9°C° 0.1 mm 5 mps 763 mmHg 94%
    04:00 +10°C° 0.1 mm 4 mps 763 mmHg 95%
    05:00 +10°C° 0.1 mm 4 mps 763 mmHg 95%
    06:00 +10°C° 0.1 mm 4 mps 763 mmHg 95%
    07:00 +10°C° 0.1 mm 4 mps 763 mmHg 95%
    08:00 +10°C° 0.1 mm 4 mps 763 mmHg 95%
    09:00 +11°C° 0.1 mm 4 mps 763 mmHg 92%
    10:00 +12°C° 0.1 mm 5 mps 763 mmHg 89%
    11:00 +12°C° 0.1 mm 5 mps 763 mmHg 86%
    12:00 +12°C° 0.1 mm 5 mps 763 mmHg 86%
    13:00 +12°C° 0.1 mm 5 mps 763 mmHg 86%
    14:00 +12°C° 0.1 mm 5 mps 762 mmHg 86%
    15:00 +10°C° 0.1 mm 5 mps 762 mmHg 88%
    16:00 +10°C° 0.1 mm 4 mps 763 mmHg 91%
    17:00 +10°C° 0.1 mm 4 mps 763 mmHg 94%
    18:00 +9°C° 0 mm 5 mps 763 mmHg 93%
    19:00 +9°C° 0 mm 5 mps 763 mmHg 93%
    20:00 +8°C° 0 mm 5 mps 763 mmHg 92%
    21:00 +9°C° 0 mm 5 mps 763 mmHg 91%
    22:00 +9°C° 0 mm 5 mps 762 mmHg 90%
    23:00 +10°C° 0 mm 6 mps 762 mmHg 89%
    Show more